Total_Precipitation_Accumulation
0.03 0.11 0.35 0.50 0.50 0.50 0.49 0.47 0.43 0.38 0.38 0.42 0.46 0.50 0.53 0.49 0.45 0.41 0.39 0.41 0.45 0.49 0.55 0.63 0.65 0.68 0.66 0.65 0.61 0.55 0.53 0.54 0.54 0.52 0.56 0.61 0.62 0.57 0.50 0.46 0.35 0.42 0.64
0.03 0.12 0.32 0.42 0.44 0.48 0.49 0.46 0.42 0.37 0.36 0.40 0.44 0.45 0.46 0.46 0.45 0.46 0.43 0.44 0.45 0.51 0.58 0.65 0.65 0.64 0.65 0.63 0.57 0.48 0.44 0.40 0.40 0.39 0.36 0.35 0.52 0.58 0.51 0.54 0.49 0.68 0.80
0.03 0.11 0.24 0.36 0.41 0.44 0.46 0.43 0.40 0.40 0.40 0.43 0.44 0.44 0.43 0.43 0.44 0.48 0.49 0.49 0.49 0.46 0.49 0.56 0.61 0.60 0.58 0.53 0.48 0.43 0.41 0.35 0.29 0.29 0.28 0.22 0.42 0.68 0.66 0.66 0.62 0.81 0.81
0.03 0.10 0.17 0.30 0.37 0.42 0.44 0.43 0.44 0.46 0.45 0.50 0.50 0.47 0.46 0.45 0.45 0.48 0.49 0.48 0.48 0.46 0.46 0.48 0.48 0.50 0.45 0.38 0.38 0.38 0.40 0.36 0.27 0.22 0.13 0.13 0.38 0.71 0.77 0.71 0.67 0.73 0.77
0.05 0.10 0.21 0.33 0.39 0.41 0.45 0.47 0.48 0.47 0.50 0.56 0.56 0.53 0.52 0.52 0.50 0.49 0.47 0.46 0.43 0.43 0.43 0.45 0.41 0.41 0.39 0.37 0.36 0.37 0.37 0.33 0.26 0.17 0.08 0.11 0.30 0.65 0.66 0.64 0.60 0.64 0.69
0.06 0.12 0.23 0.35 0.43 0.44 0.45 0.46 0.47 0.47 0.50 0.55 0.53 0.53 0.53 0.57 0.53 0.49 0.46 0.45 0.41 0.40 0.42 0.42 0.40 0.40 0.38 0.35 0.37 0.42 0.42 0.37 0.24 0.13 0.10 0.12 0.19 0.46 0.60 0.65 0.65 0.63 0.59
0.09 0.14 0.25 0.40 0.49 0.50 0.49 0.49 0.51 0.52 0.54 0.53 0.53 0.53 0.56 0.58 0.56 0.50 0.44 0.42 0.40 0.38 0.40 0.41 0.38 0.39 0.40 0.38 0.38 0.43 0.50 0.40 0.24 0.23 0.19 0.17 0.22 0.39 0.53 0.65 0.68 0.64 0.63
0.11 0.17 0.28 0.49 0.56 0.56 0.57 0.52 0.54 0.57 0.61 0.59 0.55 0.55 0.58 0.61 0.57 0.52 0.47 0.44 0.41 0.39 0.39 0.35 0.32 0.32 0.35 0.38 0.39 0.41 0.45 0.33 0.26 0.31 0.34 0.31 0.32 0.44 0.54 0.61 0.65 0.67 0.70
0.14 0.22 0.34 0.51 0.60 0.66 0.66 0.61 0.60 0.62 0.64 0.63 0.59 0.57 0.56 0.59 0.57 0.52 0.46 0.45 0.42 0.40 0.39 0.35 0.30 0.28 0.29 0.30 0.32 0.34 0.35 0.32 0.35 0.45 0.39 0.43 0.40 0.53 0.62 0.61 0.63 0.70 0.73
0.20 0.28 0.39 0.51 0.60 0.66 0.70 0.68 0.66 0.64 0.65 0.66 0.63 0.60 0.55 0.54 0.57 0.53 0.45 0.43 0.43 0.42 0.42 0.39 0.36 0.32 0.30 0.28 0.26 0.28 0.30 0.28 0.29 0.36 0.46 0.39 0.41 0.63 0.78 0.73 0.66 0.69 0.75
0.29 0.36 0.46 0.54 0.64 0.75 0.78 0.71 0.73 0.72 0.72 0.74 0.69 0.65 0.64 0.57 0.55 0.52 0.44 0.40 0.42 0.43 0.43 0.41 0.39 0.38 0.35 0.28 0.25 0.26 0.25 0.20 0.24 0.34 0.39 0.35 0.45 0.69 0.93 0.88 0.81 0.75 0.76
0.30 0.38 0.48 0.58 0.69 0.85 0.92 0.90 0.90 0.83 0.75 0.73 0.65 0.64 0.64 0.62 0.59 0.52 0.47 0.44 0.43 0.46 0.48 0.47 0.43 0.41 0.37 0.28 0.25 0.28 0.20 0.15 0.16 0.17 0.19 0.24 0.36 0.59 0.91 1.01 0.97 0.92 0.89
0.29 0.39 0.49 0.61 0.75 0.88 0.94 0.96 0.92 0.87 0.79 0.76 0.69 0.64 0.64 0.67 0.62 0.57 0.55 0.55 0.52 0.48 0.49 0.52 0.54 0.49 0.45 0.37 0.32 0.30 0.23 0.20 0.18 0.14 0.13 0.18 0.24 0.41 0.66 0.86 1.06 1.08 1.11
0.32 0.42 0.53 0.64 0.79 0.92 0.99 1.02 0.95 0.84 0.75 0.70 0.71 0.69 0.68 0.63 0.57 0.52 0.47 0.44 0.45 0.43 0.43 0.47 0.49 0.51 0.53 0.50 0.41 0.34 0.33 0.31 0.25 0.21 0.17 0.20 0.22 0.31 0.53 0.72 0.92 1.09 1.20
0.30 0.43 0.54 0.65 0.75 0.91 1.05 1.05 1.03 0.92 0.77 0.72 0.72 0.71 0.66 0.62 0.55 0.51 0.47 0.47 0.44 0.40 0.38 0.40 0.39 0.37 0.38 0.42 0.42 0.38 0.38 0.34 0.31 0.30 0.27 0.28 0.26 0.27 0.43 0.62 0.77 0.99 1.19
0.31 0.42 0.54 0.67 0.74 0.85 0.98 1.02 1.02 1.01 0.94 0.86 0.76 0.69 0.67 0.67 0.60 0.53 0.49 0.46 0.45 0.44 0.42 0.40 0.38 0.35 0.31 0.28 0.27 0.27 0.32 0.34 0.35 0.35 0.31 0.31 0.30 0.28 0.34 0.51 0.69 0.90 1.15
0.34 0.44 0.56 0.64 0.76 0.82 0.89 1.00 1.04 1.06 1.02 0.98 0.86 0.79 0.78 0.74 0.71 0.65 0.58 0.51 0.46 0.45 0.44 0.45 0.42 0.39 0.34 0.29 0.26 0.24 0.23 0.25 0.29 0.33 0.32 0.32 0.34 0.32 0.32 0.42 0.59 0.77 1.02
0.38 0.47 0.61 0.65 0.74 0.80 0.84 0.96 1.00 1.06 1.09 1.09 1.06 0.97 0.89 0.86 0.82 0.77 0.74 0.69 0.63 0.56 0.51 0.49 0.45 0.44 0.40 0.35 0.30 0.27 0.26 0.25 0.24 0.26 0.28 0.31 0.35 0.36 0.35 0.40 0.50 0.70 0.91
0.32 0.43 0.59 0.68 0.74 0.79 0.84 0.93 1.03 1.07 1.11 1.16 1.20 1.17 1.03 0.98 0.94 0.89 0.84 0.82 0.84 0.77 0.65 0.56 0.50 0.45 0.43 0.38 0.35 0.33 0.30 0.27 0.27 0.28 0.25 0.24 0.26 0.31 0.36 0.39 0.46 0.58 0.73
0.32 0.44 0.58 0.74 0.84 0.89 0.96 0.99 1.10 1.16 1.10 1.10 1.13 1.19 1.17 1.10 1.05 1.03 0.94 0.87 0.86 0.86 0.79 0.66 0.56 0.51 0.46 0.44 0.41 0.39 0.38 0.35 0.30 0.27 0.26 0.25 0.24 0.26 0.32 0.38 0.41 0.48 0.59
0.39 0.47 0.60 0.73 0.86 0.92 0.99 1.01 0.99 1.05 1.05 1.01 0.96 1.06 1.21 1.24 1.18 1.15 1.09 1.05 0.98 0.91 0.83 0.74 0.67 0.63 0.57 0.51 0.53 0.52 0.46 0.42 0.41 0.34 0.29 0.27 0.26 0.25 0.28 0.37 0.42 0.44 0.52
0.39 0.45 0.57 0.73 0.85 0.87 0.87 0.96 0.98 1.03 1.04 1.05 0.99 1.00 1.11 1.26 1.34 1.32 1.25 1.21 1.14 1.04 0.97 0.87 0.79 0.79 0.75 0.64 0.60 0.65 0.64 0.59 0.49 0.40 0.35 0.30 0.29 0.30 0.30 0.32 0.40 0.46 0.48
0.34 0.40 0.47 0.64 0.84 0.91 0.91 1.02 1.11 1.21 1.27 1.24 1.14 1.04 1.06 1.11 1.15 1.18 1.17 1.15 1.17 1.13 1.05 0.96 0.87 0.85 0.86 0.77 0.65 0.76 0.87 0.75 0.53 0.43 0.40 0.35 0.31 0.31 0.30 0.31 0.35 0.43 0.47
0.35 0.41 0.44 0.55 0.73 0.95 0.98 0.99 1.06 1.13 1.18 1.20 1.11 1.03 1.02 1.09 1.13 1.11 1.11 1.09 1.04 0.99 0.93 0.89 0.85 0.81 0.86 0.85 0.73 0.65 0.66 0.68 0.72 0.58 0.41 0.39 0.38 0.36 0.33 0.31 0.32 0.38 0.46
0.42 0.50 0.50 0.57 0.67 0.87 0.93 0.93 0.99 1.03 1.07 1.18 1.20 1.10 1.07 1.11 1.17 1.18 1.14 1.11 1.08 0.99 0.89 0.83 0.82 0.83 0.82 0.81 0.74 0.66 0.59 0.52 0.54 0.69 0.55 0.46 0.50 0.47 0.45 0.41 0.39 0.41 0.47
0.47 0.60 0.60 0.64 0.66 0.78 0.95 0.93 0.89 0.95 0.98 1.06 1.17 1.22 1.18 1.15 1.15 1.16 1.15 1.11 1.06 1.05 0.99 0.89 0.84 0.85 0.82 0.78 0.77 0.73 0.70 0.70 0.60 0.64 0.62 0.50 0.49 0.48 0.50 0.55 0.55 0.56 0.60